This demonstration page uses our WeatherBlox Daily Observations layout. Learn more.

Left ArrowRight Arrow

39.12711, -84.51439

Hourly Observations for January 3, 2022

Temp ( °F °C ) Dew Point ( °F °C ) Humidity (%) Winds ( mph kmh ) Pressure ( in mb ) Visibility ( mi km ) Precip ( " mm )
12:53 am 00:53 Cloudy 30 -1.1 23 -5 75 75 NNE 12 19 30.23 1024 10 16 0.00 0.00
1:53 am 01:53 Cloudy 29 -1.7 21 -6.1 72 72 NNE 15 24 30.21 1023 10 16 0.00 0.00
2:53 am 02:53 Cloudy 28 -2.2 21 -6.1 75 75 N 12 19 30.23 1024 10 16 0.00 0.00
3:53 am 03:53 Cloudy 27 -2.8 20 -6.7 75 75 N 15 24 30.23 1024 10 16 0.00 0.00
4:53 am 04:53 Cloudy 27 -2.8 21 -6.1 78 78 N 8 13 30.24 1024 10 16 0.00 0.00
5:53 am 05:53 Cloudy 26 -3.3 19 -7.2 75 75 N 10 17 30.29 1026 10 16 0.00 0.00
6:53 am 06:53 Mostly Cloudy 25 -3.9 17 -8.3 72 72 N 12 19 30.31 1026 10 16 0.00 0.00
7:53 am 07:53 Mostly Cloudy 24 -4.4 16 -8.9 71 71 N 10 17 30.34 1028 10 16 0.00 0.00
8:02 am 08:02 Partly Cloudy 23 -5 15 -9.4 72 72 N 10 17 30.37 1028 10 16 0.00 0.00
8:53 am 08:53 Sunny 24 -4.4 14 -10 65 65 N 12 19 30.37 1028 10 16 0.00 0.00
9:53 am 09:53 Sunny 26 -3.3 16 -8.9 66 66 N 14 22 30.40 1030 10 16 0.00 0.00
10:53 am 10:53 Sunny 29 -1.7 16 -8.9 58 58 NE 10 17 30.41 1030 10 16 0.00 0.00
11:53 am 11:53 Sunny 31 -0.6 15 -9.4 52 52 NNE 8 13 30.41 1030 10 16 0.00 0.00
12:53 pm 12:53 Sunny 31 -0.6 15 -9.4 52 52 VRB 5 7 30.39 1029 10 16 0.00 0.00
1:53 pm 13:53 Sunny 33 0.6 14 -10 45 45 ENE 3 6 30.38 1029 10 16 0.00 0.00
2:53 pm 14:53 Sunny 33 0.6 14 -10 45 45 Calm 30.39 1029 10 16 0.00 0.00
3:53 pm 15:53 Sunny 34 1.1 14 -10 44 44 Calm 30.39 1029 10 16 0.00 0.00
4:53 pm 16:53 Sunny 33 0.6 16 -8.9 49 49 WNW 3 6 30.40 1030 10 16 0.00 0.00
5:53 pm 17:53 Clear 29 -1.7 18 -7.8 63 63 WSW 6 9 30.41 1030 10 16 0.00 0.00
6:53 pm 18:53 Clear 30 -1.1 18 -7.8 61 61 Calm 30.43 1031 10 16 0.00 0.00
7:53 pm 19:53 Clear 27 -2.8 19 -7.2 72 72 Calm 30.44 1031 10 16 0.00 0.00
8:53 pm 20:53 Clear 26 -3.3 20 -6.7 78 78 Calm 30.43 1031 10 16 0.00 0.00
9:53 pm 21:53 Clear 24 -4.4 21 -6.1 88 88 Calm 30.44 1031 10 16 0.00 0.00
10:53 pm 22:53 Clear 25 -3.9 21 -6.1 85 85 Calm 30.44 1031 10 16 0.00 0.00
11:53 pm 23:53 Clear 24 -4.4 22 -5.6 91 91 Calm 30.43 1031 10 16 0.00 0.00

Powered by AerisWeather